User: anonymous   Login
Location: Unspecified
(0.0000°N, 0.0000°E)
Time: 07:36:48
(UTC+00:00)
Language:

CASSIOPE - Orbit

View from above orbital plane
View from above orbital plane
View from above satellite
View from above satellite

Ground track
Ground track

The orbit data is extracted from the following two-line orbital elements,

1 39265U 13055A   18115.90495363 +.00004607 +00000-0 +13116-3 0  9996
2 39265 080.9710 050.8905 0679468 066.2546 300.8374 14.25141569236024
Epoch (UTC): 25 April 2018 21:43:07
Eccentricity: 0.0679468
inclination: 80.9710°
perigee height: 320 km
apogee height: 1296 km
right ascension of ascending node: 50.8905°
argument of perigee: 66.2546°
revolutions per day: 14.25141569
mean anomaly at epoch: 300.8374°
orbit number at epoch: 23602

The dashed part of the orbit path shows where the satellite is in the earth's shadow,  

DLR